SL-14 DEB

Satellite information

Favourite Embed

Satellite Type and Status

DEBRISIN ORBIT

Key statistics

Satellite SL-14 DEB at a glance.

Uptime

12435

Days in orbit

Revolutions

≈ 13.2

Per day

Orbit

LEO

Low Earth Orbit

Inclination

82.6

Latest

Satellite identification and parameters

Extended collection of information and parameters for SL-14 DEB.

Object identification

Identified? True

Debris? True

Object name: SL-14 DEB

International designator: 1991-056AW

Object number (NORAD): 45308

Object ID (CCSDS): 45308

Country: COMMONWEALTH OF INDEPENDENT STATES (CIS)

Current information (Y/N): Y

RCS size: SMALL

Orbital parameters

Period: 108.869 minutes

Inclination: 82.5784 deg

SMA: 7552.588 km

Apoapsis: 1195.518 km

Periapsis: 1153.387 km

RAAN: 340.785 deg

Eccentricy: 0.00278917

Argument of periapsis: 80.4577 deg

Mean anomaly: 279.9698 deg

Mean motion: 13.22693134 rev/day

Mean motion (dot): 0.00000423 rev/day2

B* drag term: 0.00097877149 1/REarth

Two-line elements (TLE)

Creation date: Aug. 25, 2025, 9:12 p.m.

Reference frame: TEME

Reference center: EARTH

Epoch: Aug. 25, 2025, 6:03 a.m. UTC

TLE line 0: 0 SL-14 DEB

TLE line 1: 1 45308U 91056AW 25237.25275620 .00000423 00000-0 97877-3 0 9999

TLE line 2: 2 45308 82.5784 340.7850 0027892 80.4577 279.9698 13.22693134265234

Live tracking on map

Real-time ground track for satellite SL-14 DEB.

In-orbit conjunctions

A list of the most updated potential collisions computed for object SL-14 DEB.

Target Orbit TCA Probability of collision Miss distance Type
NIMBUS 2 SSO 2024-05-28 19:59:19 0.0001199893 616.0 (m) PAYLOAD

Associated space launch

Third generation meteorological satellite

SL-14 DEB was lifted into orbit during the mission ‘Tsiklon-3 | Meteor-3 5’, on board a Tsiklon-3 space rocket.

The launch took place on Aug. 15, 1991, 9:15 a.m. from 32/2.

For more information about the launch, click the button.

Launch to space Tsiklon-3 | Meteor-3 5
Tsiklon-3 | Meteor-3 5

Agency: N/A

Status: Launch Successful

Launch date: Aug. 15, 1991, 9:15 a.m. UTC

Rocket: Tsiklon-3

Launch pad: 32/2

Location: Plesetsk Cosmodrome, Russian Federation

...

Latest news about this satellite

There are no fresh news available about this satellite. Check back as we update our databases every day.


Newsletter sign-up

Weekly statistics, charts and insights to help you stay on top of the space industry.